Location: Aytr�
(46.1357°N, 1.1145°W)
Time: 09:54:42
(UTC+00:00)

ISS - Pass Details

Date: 26 September 2021
Orbit: 417 x 423 km, 51.6° (Epoch: 20 October)

Event Time Altitude Azimuth Distance (km) Brightness Sun altitude
Rises 19:03:57 0° 286° (WNW) 2,363 2.1 -12.9°
Maximum altitude 19:09:14 30° 1° (N) 775 -2.3 -13.8°
Enters shadow 19:11:11 17° 54° (NE) 1,131 -2.0 -14.1°
